FW9201 Weather Reports


time (UTC)temp
C
wind
direction
speed
KPH
gust
KPH
rain 1hr
cm
rain 24hr
cm
rain mn
cm
humidity
%
barometer
mb
20260508033313 11 233 0.0 0.0 0.00 0.00 0.00 71 1013.3
20260508032810 11 246 0.0 0.0 0.00 0.00 0.00 73 1013.1
20260508032308 11 229 0.0 0.0 0.00 0.00 0.00 70 1012.9
20260508031804 11 247 0.0 0.0 0.00 0.00 0.00 70 1012.6
20260508031301 11 237 0.0 0.0 0.00 0.00 0.00 71 1012.9
20260508030757 12 239 0.0 0.0 0.00 0.00 0.00 70 1012.6
20260508030255 12 228 0.0 0.0 0.00 0.00 0.00 69 1012.4
20260508025751 12 227 0.0 0.0 0.00 0.00 0.00 69 1012.3
20260508025248 12 226 0.0 0.0 0.00 0.00 0.00 67 1012.5
20260508024744 12 229 0.0 0.0 0.00 0.00 0.00 66 1012.3
20260508024241 12 234 0.0 0.0 0.00 0.00 0.00 67 1012.2
20260508023738 13 241 0.0 0.0 0.00 0.00 0.00 65 1012.2
20260508023236 13 225 0.0 0.0 0.00 0.00 0.00 63 1012.3
20260508022731 13 232 0.0 0.0 0.00 0.00 0.00 63 1012.1
20260508022228 13 278 0.0 0.0 0.00 0.00 0.00 62 1012.0
20260508021725 13 238 0.0 0.0 0.00 0.00 0.00 63 1012.2
20260508021220 13 228 0.0 0.0 0.00 0.00 0.00 61 1012.1
20260508020718 13 229 0.0 0.0 0.00 0.00 0.00 60 1012.0
20260508020215 13 232 0.0 0.0 0.00 0.00 0.00 61 1012.1
20260508015712 14 232 0.0 0.0 0.00 0.00 0.00 60 1011.9
20260508015209 14 220 0.0 0.0 0.00 0.00 0.00 58 1011.5
20260508014706 14 233 0.0 0.0 0.00 0.00 0.00 59 1011.8
20260508014202 14 244 0.0 0.0 0.00 0.00 0.00 60 1011.9
20260508013658 14 219 0.0 0.0 0.00 0.00 0.00 57 1011.6
20260508013155 14 222 0.0 0.0 0.00 0.00 0.00 58 1011.8
20260508012652 15 222 0.0 0.0 0.00 0.00 0.00 57 1011.4
20260508012149 15 220 0.0 0.0 0.00 0.00 0.00 56 1011.8
20260508011648 15 219 0.0 0.0 0.00 0.00 0.00 54 1011.6
20260508011145 15 228 0.0 0.0 0.00 0.00 0.00 55 1011.6
20260508010641 16 215 0.0 0.0 0.00 0.00 0.00 50 1011.6
20260508010139 16 210 0.0 0.0 0.00 0.00 0.00 50 1011.6
20260508005636 16 209 0.0 0.0 0.00 0.00 0.00 49 1011.8
20260508005133 16 222 0.0 0.0 0.00 0.00 0.00 50 1011.8
20260508004628 16 212 0.0 0.0 0.00 0.00 0.00 49 1011.8
20260508004125 16 216 0.0 0.0 0.00 0.00 0.00 50 1012.0
20260508003621 16 217 0.0 0.0 0.00 0.00 0.00 48 1011.9
20260508003119 16 207 0.0 0.0 0.00 0.00 0.00 48 1012.0
20260508002615 16 216 0.0 0.0 0.00 0.00 0.00 48 1011.8
20260508002113 16 204 0.0 0.0 0.00 0.00 0.00 47 1011.8
20260508001608 16 196 0.0 0.0 0.00 0.00 0.00 47 1011.9
20260508001105 16 191 0.0 0.0 0.00 0.00 0.00 49 1011.8
20260508000600 16 157 0.0 0.0 0.00 0.00 0.00 47 1011.9
20260508000058 16 193 0.0 0.0 0.00 0.00 0.00 49 1012.0
20260507235555 16 235 0.0 0.0 0.00 0.00 0.00 49 1011.9
20260507235052 16 191 0.0 0.0 0.00 0.00 0.00 51 1012.0
20260507234548 16 192 6.4 11.3 0.00 0.00 0.00 51 1012.1
20260507234045 16 197 0.0 0.0 0.00 0.00 0.00 51 1011.8
20260507233542 17 146 8.0 9.7 0.00 0.00 0.00 51 1011.9
20260507233041 16 214 0.0 0.0 0.00 0.00 0.00 52 1011.8
20260507232536 15 187 6.4 8.0 0.00 0.00 0.00 55 1012.0
20260507232034 16 144 8.0 11.3 0.00 0.00 0.00 56 1012.2
20260507231530 16 181 11.3 11.3 0.00 0.00 0.00 54 1012.0
20260507231028 15 161 6.4 11.3 0.00 0.00 0.00 54 1012.1
20260507230524 15 173 0.0 0.0 0.00 0.00 0.00 53 1012.0
20260507230021 15 191 6.4 11.3 0.00 0.00 0.00 54 1012.1
20260507225515 16 175 4.8 4.8 0.00 0.00 0.00 53 1012.0
20260507225012 16 160 8.0 9.7 0.00 0.00 0.00 53 1012.3
20260507224508 16 150 9.7 11.3 0.00 0.00 0.00 53 1012.1
20260507224005 16 137 6.4 11.3 0.00 0.00 0.00 53 1012.1
20260507223501 16 202 3.2 4.8 0.00 0.00 0.00 54 1012.1
20260507222958 16 165 0.0 0.0 0.00 0.00 0.00 58 1012.2
20260507222455 16 164 0.0 0.0 0.00 0.00 0.00 58 1012.4
20260507221951 16 159 9.7 14.5 0.00 0.00 0.00 58 1012.3
20260507221448 16 195 8.0 9.7 0.00 0.00 0.00 59 1012.2
20260507220944 16 153 8.0 11.3 0.00 0.00 0.00 54 1012.6
20260507220442 16 163 6.4 8.0 0.00 0.00 0.00 56 1012.8
20260507215939 16 174 3.2 8.0 0.00 0.00 0.00 58 1012.8
20260507215435 15 156 8.0 9.7 0.00 0.00 0.00 57 1012.6
20260507214933 15 161 0.0 0.0 0.00 0.00 0.00 57 1012.8
20260507214430 15 144 9.7 16.1 0.00 0.00 0.00 57 1012.8
20260507213926 15 139 11.3 16.1 0.00 0.00 0.00 55 1012.5
20260507213422 16 178 1.6 3.2 0.00 0.00 0.00 54 1012.5
20260507212919 16 196 0.0 1.6 0.00 0.00 0.00 53 1012.9
20260507212415 16 163 12.9 16.1 0.00 0.00 0.00 51 1012.5
20260507211912 16 120 8.0 9.7 0.00 0.00 0.00 51 1012.4
20260507211408 17 150 9.7 11.3 0.00 0.00 0.00 49 1012.5
20260507210905 17 154 11.3 14.5 0.00 0.00 0.00 48 1012.5
20260507210403 17 195 0.0 0.0 0.00 0.00 0.00 47 1012.1
20260507205859 17 206 0.0 0.0 0.00 0.00 0.00 46 1012.4
20260507205356 17 135 6.4 8.0 0.00 0.00 0.00 49 1012.4
20260507204852 17 167 4.8 4.8 0.00 0.00 0.00 48 1012.4
20260507204349 17 174 6.4 8.0 0.00 0.00 0.00 49 1012.5
20260507203847 17 172 4.8 4.8 0.00 0.00 0.00 46 1012.5
20260507203345 18 175 0.0 0.0 0.00 0.00 0.00 48 1012.4
20260507202841 17 226 0.0 0.0 0.00 0.00 0.00 43 1012.4
20260507202337 17 249 0.0 0.0 0.00 0.00 0.00 44 1012.4
20260507201833 17 7 0.0 0.0 0.00 0.00 0.00 43 1012.5
20260507201328 17 309 0.0 0.0 0.00 0.00 0.00 43 1012.4
20260507200825 17 153 0.0 0.0 0.00 0.00 0.00 43 1012.5
20260507200321 17 139 0.0 0.0 0.00 0.00 0.00 44 1012.3
20260507195817 17 158 0.0 0.0 0.00 0.00 0.00 41 1012.5
20260507195315 18 148 0.0 0.0 0.00 0.00 0.00 42 1012.4
20260507194812 18 271 0.0 0.0 0.00 0.00 0.00 41 1012.6
20260507194308 17 163 0.0 1.6 0.00 0.00 0.00 42 1012.3
20260507193805 18 188 0.0 0.0 0.00 0.00 0.00 40 1012.4
20260507193302 17 186 3.2 4.8 0.00 0.00 0.00 43 1012.6
20260507192757 17 163 1.6 1.6 0.00 0.00 0.00 44 1012.5
20260507192254 17 152 0.0 0.0 0.00 0.00 0.00 44 1012.5
20260507191750 17 154 0.0 0.0 0.00 0.00 0.00 45 1012.6
20260507191247 17 148 0.0 1.6 0.00 0.00 0.00 44 1012.8
20260507190744 17 180 0.0 0.0 0.00 0.00 0.00 43 1012.5
20260507190243 17 197 0.0 0.0 0.00 0.00 0.00 42 1012.6
20260507185741 17 338 0.0 0.0 0.00 0.00 0.00 45 1012.6
20260507185237 17 302 0.0 0.0 0.00 0.00 0.00 43 1012.9
20260507184735 17 258 0.0 0.0 0.00 0.00 0.00 43 1013.0
20260507184233 17 160 1.6 3.2 0.00 0.00 0.00 43 1012.6
20260507183729 17 258 0.0 0.0 0.00 0.00 0.00 44 1012.8
20260507183226 17 224 0.0 0.0 0.00 0.00 0.00 42 1013.1
20260507182724 16 52 0.0 0.0 0.00 0.00 0.00 44 1013.1
20260507182218 16 287 0.0 0.0 0.00 0.00 0.00 46 1013.2
20260507181716 17 284 0.0 0.0 0.00 0.00 0.00 43 1013.0
20260507181212 16 204 0.0 0.0 0.00 0.00 0.00 43 1013.1
20260507180710 16 267 0.0 0.0 0.00 0.00 0.00 45 1013.1
20260507180206 16 287 1.6 8.0 0.00 0.00 0.00 44 1013.2
20260507175701 17 297 0.0 3.2 0.00 0.00 0.00 44 1013.3
20260507175158 16 328 6.4 8.0 0.00 0.00 0.00 43 1013.3
20260507174656 17 309 0.0 0.0 0.00 0.00 0.00 44 1013.4
20260507174154 16 288 0.0 0.0 0.00 0.00 0.00 45 1013.4
20260507173651 16 246 4.8 4.8 0.00 0.00 0.00 45 1013.4
20260507173147 16 311 4.8 9.7 0.00 0.00 0.00 46 1013.4
20260507172643 16 296 9.7 14.5 0.00 0.00 0.00 46 1013.2
20260507172136 16 287 6.4 8.0 0.00 0.00 0.00 45 1013.3
20260507171635 16 254 0.0 0.0 0.00 0.00 0.00 46 1013.1
20260507171133 16 306 11.3 12.9 0.00 0.00 0.00 48 1013.2
20260507170630 17 357 6.4 11.3 0.00 0.00 0.00 46 1013.4
20260507170127 17 317 8.0 9.7 0.00 0.00 0.00 49 1013.3
20260507165622 16 346 8.0 11.3 0.00 0.00 0.00 50 1013.3
20260507165119 15 282 0.0 1.6 0.00 0.00 0.00 50 1013.0
20260507164615 15 272 8.0 14.5 0.00 0.00 0.00 51 1013.1
20260507164112 15 258 0.0 0.0 0.00 0.00 0.00 55 1013.1
20260507163609 15 175 0.0 0.0 0.00 0.00 0.00 59 1013.0
20260507163107 15 168 0.0 0.0 0.00 0.00 0.00 58 1013.2
20260507162602 15 199 0.0 0.0 0.00 0.00 0.00 57 1013.0
20260507162059 15 197 0.0 0.0 0.00 0.00 0.00 56 1013.3
20260507161555 14 183 0.0 0.0 0.00 0.00 0.00 59 1013.1
20260507161052 14 175 0.0 0.0 0.00 0.00 0.00 60 1013.1
20260507160548 15 168 0.0 0.0 0.00 0.00 0.00 64 1013.1
20260507160044 14 161 0.0 0.0 0.00 0.00 0.00 64 1012.9
20260507155540 14 157 0.0 0.0 0.00 0.00 0.00 61 1013.2
20260507155037 13 183 0.0 0.0 0.00 0.00 0.00 65 1013.1
20260507154534 13 167 0.0 0.0 0.00 0.00 0.00 67 1013.1
20260507154031 13 188 1.6 3.2 0.00 0.00 0.00 69 1013.0
20260507153528 13 194 0.0 0.0 0.00 0.00 0.00 68 1012.8
20260507153024 12 187 0.0 0.0 0.00 0.00 0.00 71 1013.1
20260507152520 12 166 0.0 0.0 0.00 0.00 0.00 73 1013.0
20260507152017 13 163 0.0 0.0 0.00 0.00 0.00 71 1012.9
20260507151513 13 164 0.0 0.0 0.00 0.00 0.00 63 1013.0
20260507151010 13 158 0.0 0.0 0.00 0.00 0.00 67 1012.8
20260507150507 13 164 3.2 4.8 0.00 0.00 0.00 70 1013.0
20260507150004 13 196 0.0 0.0 0.00 0.00 0.00 71 1013.0
20260507145458 13 199 0.0 0.0 0.00 0.00 0.00 72 1012.5
20260507144956 12 194 0.0 0.0 0.00 0.00 0.00 72 1013.0
20260507144453 12 186 1.6 1.6 0.00 0.00 0.00 73 1012.8
20260507143950 12 188 0.0 0.0 0.00 0.00 0.00 72 1012.6
20260507143448 12 173 3.2 3.2 0.00 0.00 0.00 74 1012.4
20260507142944 12 175 0.0 0.0 0.00 0.00 0.00 73 1012.5
20260507142440 12 208 0.0 0.0 0.00 0.00 0.00 77 1012.3
20260507141937 12 212 0.0 0.0 0.00 0.00 0.00 75 1012.3
20260507141433 12 221 0.0 0.0 0.00 0.00 0.00 76 1012.3
20260507140930 11 221 0.0 0.0 0.00 0.00 0.00 78 1012.4
20260507140426 11 221 0.0 0.0 0.00 0.00 0.00 76 1012.1
20260507135925 11 220 0.0 0.0 0.00 0.00 0.00 77 1012.1
20260507135421 11 228 0.0 0.0 0.00 0.00 0.00 78 1012.4
20260507134918 11 232 0.0 0.0 0.00 0.00 0.00 78 1012.3
20260507134415 11 239 0.0 0.0 0.00 0.00 0.00 77 1012.0
20260507133910 11 211 0.0 0.0 0.00 0.00 0.00 73 1012.0
20260507133406 11 207 0.0 0.0 0.00 0.00 0.00 76 1011.9
20260507132905 11 195 0.0 0.0 0.00 0.00 0.00 76 1011.9
20260507132401 11 222 0.0 0.0 0.00 0.00 0.00 73 1011.8
20260507131858 11 226 0.0 0.0 0.00 0.00 0.00 73 1012.0
20260507131355 11 225 0.0 0.0 0.00 0.00 0.00 72 1011.9
20260507130852 11 224 0.0 0.0 0.00 0.00 0.00 76 1011.8
20260507130349 11 226 0.0 0.0 0.00 0.00 0.00 75 1011.5
20260507125848 11 227 0.0 0.0 0.00 0.00 0.00 76 1011.4
20260507125345 12 220 0.0 0.0 0.00 0.00 0.00 71 1011.8
20260507124843 12 195 0.0 0.0 0.00 0.00 0.00 69 1011.4
20260507124338 12 174 0.0 0.0 0.00 0.00 0.00 68 1011.2
20260507123837 12 201 0.0 0.0 0.00 0.00 0.00 69 1011.9
20260507123334 12 199 0.0 0.0 0.00 0.00 0.00 70 1011.6
20260507122830 12 171 3.2 3.2 0.00 0.00 0.00 69 1011.6
20260507122325 12 182 3.2 3.2 0.00 0.00 0.00 69 1011.8
20260507121823 12 207 0.0 0.0 0.00 0.00 0.00 66 1011.8
20260507121318 12 196 0.0 1.6 0.00 0.00 0.00 65 1011.8
20260507120814 12 163 4.8 4.8 0.00 0.00 0.00 65 1011.8
20260507120311 12 185 0.0 0.0 0.00 0.00 0.00 65 1011.5
20260507115807 12 114 0.0 0.0 0.00 0.00 0.00 65 1011.5
20260507115306 12 214 0.0 0.0 0.00 0.00 0.00 68 1011.5
20260507114759 12 199 0.0 0.0 0.00 0.00 0.00 67 1011.1
20260507114256 12 216 0.0 0.0 0.00 0.00 0.00 73 1011.1
20260507113753 11 207 0.0 0.0 0.00 0.00 0.00 72 1011.2
20260507113250 12 225 0.0 0.0 0.00 0.00 0.00 74 1011.4
20260507112748 12 217 0.0 0.0 0.00 0.00 0.00 74 1011.3
20260507112244 12 115 0.0 0.0 0.00 0.00 0.00 69 1011.2
20260507111743 11 216 0.0 0.0 0.00 0.00 0.00 69 1011.4
20260507111239 12 220 0.0 0.0 0.00 0.00 0.00 68 1011.3
20260507110735 12 336 0.0 0.0 0.00 0.00 0.00 62 1011.8
20260507110232 12 238 0.0 0.0 0.00 0.00 0.00 62 1011.3
20260507105728 12 234 0.0 0.0 0.00 0.00 0.00 62 1011.4
20260507105224 13 237 0.0 0.0 0.00 0.00 0.00 57 1011.3
20260507104722 14 195 0.0 0.0 0.00 0.00 0.00 53 1011.0
20260507104219 13 195 0.0 0.0 0.00 0.00 0.00 53 1011.1
20260507103714 13 213 0.0 0.0 0.00 0.00 0.00 56 1011.1
20260507103211 13 229 0.0 0.0 0.00 0.00 0.00 57 1011.0
20260507102707 13 213 0.0 0.0 0.00 0.00 0.00 56 1010.8
20260507102204 13 229 0.0 0.0 0.00 0.00 0.00 56 1011.0
20260507101700 13 198 0.0 0.0 0.00 0.00 0.00 55 1011.0
20260507101155 13 177 0.0 0.0 0.00 0.00 0.00 55 1010.9
20260507100653 13 172 0.0 0.0 0.00 0.00 0.00 56 1010.6
20260507100151 13 157 8.0 12.9 0.00 0.00 0.00 55 1010.8
20260507095649 14 144 0.0 1.6 0.00 0.00 0.00 54 1010.9
20260507095145 15 156 16.1 17.7 0.00 0.00 0.00 52 1010.8
20260507094642 15 155 14.5 17.7 0.00 0.00 0.00 49 1010.9
20260507094138 15 107 4.8 9.7 0.00 0.00 0.00 49 1010.9
20260507093636 13 89 4.8 9.7 0.00 0.00 0.00 53 1010.4
20260507093135 13 122 14.5 16.1 0.00 0.00 0.00 54 1010.5
20260507092631 14 149 0.0 0.0 0.00 0.00 0.00 55 1010.6
20260507092127 13 185 0.0 0.0 0.00 0.00 0.00 58 1010.5
20260507091624 13 217 0.0 0.0 0.00 0.00 0.00 56 1010.6
20260507091120 13 211 0.0 0.0 0.00 0.00 0.00 54 1010.2
20260507090616 14 204 0.0 0.0 0.00 0.00 0.00 54 1010.2
20260507090113 14 193 0.0 0.0 0.00 0.00 0.00 53 1010.3
20260507085610 14 189 0.0 0.0 0.00 0.00 0.00 53 1010.1
20260507085107 15 172 0.0 0.0 0.00 0.00 0.00 53 1010.1
20260507084604 15 157 0.0 0.0 0.00 0.00 0.00 51 1009.9
20260507084101 15 188 0.0 0.0 0.00 0.00 0.00 49 1010.0
20260507083557 15 173 0.0 0.0 0.00 0.00 0.00 50 1010.1
20260507083054 15 175 0.0 0.0 0.00 0.00 0.00 49 1010.1
20260507082550 16 246 0.0 0.0 0.00 0.00 0.00 50 1010.1
20260507082047 16 220 0.0 0.0 0.00 0.00 0.00 48 1010.1
20260507081543 15 51 0.0 0.0 0.00 0.00 0.00 48 1010.3
20260507081040 15 235 0.0 0.0 0.00 0.00 0.00 51 1010.2
20260507080536 13 228 0.0 0.0 0.00 0.00 0.00 52 1009.4
20260507080033 13 228 0.0 0.0 0.00 0.00 0.00 54 1009.4
20260507075527 13 233 0.0 0.0 0.00 0.00 0.00 54 1009.8
20260507075024 13 234 0.0 0.0 0.00 0.00 0.00 56 1009.4
20260507074521 13 245 0.0 0.0 0.00 0.00 0.00 57 1009.5
20260507074020 13 235 0.0 0.0 0.00 0.00 0.00 58 1009.3
20260507073515 13 233 0.0 0.0 0.00 0.00 0.00 57 1009.6
20260507073012 13 238 0.0 0.0 0.00 0.00 0.00 56 1009.3
20260507072510 13 243 0.0 0.0 0.00 0.00 0.00 56 1009.3
20260507072007 13 259 0.0 0.0 0.00 0.00 0.00 55 1009.1
20260507071504 13 239 0.0 0.0 0.00 0.00 0.00 56 1009.5
20260507071000 13 234 0.0 0.0 0.00 0.00 0.00 56 1009.3
20260507070458 13 233 0.0 0.0 0.00 0.00 0.00 54 1009.4
20260507065954 14 242 0.0 0.0 0.00 0.00 0.00 55 1009.3
20260507065451 14 227 0.0 0.0 0.00 0.00 0.00 52 1009.3
20260507064948 15 225 0.0 0.0 0.00 0.00 0.00 51 1009.6
20260507064446 16 219 0.0 0.0 0.00 0.00 0.00 48 1009.4
20260507063944 16 205 0.0 0.0 0.00 0.00 0.00 47 1009.4
20260507063440 16 194 0.0 0.0 0.00 0.00 0.00 47 1009.2
20260507062937 16 195 0.0 0.0 0.00 0.00 0.00 47 1009.2
20260507062435 16 194 0.0 0.0 0.00 0.00 0.00 47 1009.3
20260507061932 16 190 0.0 0.0 0.00 0.00 0.00 47 1009.2
20260507061430 16 179 0.0 0.0 0.00 0.00 0.00 47 1009.2
20260507060928 16 154 1.6 8.0 0.00 0.00 0.00 47 1009.1
20260507060425 16 173 0.0 0.0 0.00 0.00 0.00 48 1009.1
20260507055922 16 168 3.2 4.8 0.00 0.00 0.00 46 1008.8
20260507055417 16 177 0.0 0.0 0.00 0.00 0.00 46 1008.9
20260507054914 16 190 0.0 0.0 0.00 0.00 0.00 46 1009.1
20260507054410 16 136 6.4 11.3 0.00 0.00 0.00 47 1009.1
20260507053908 16 205 0.0 0.0 0.00 0.00 0.00 46 1009.0
20260507053405 16 179 0.0 0.0 0.00 0.00 0.00 45 1009.2
20260507052904 16 163 4.8 11.3 0.00 0.00 0.00 44 1009.2
20260507052400 16 159 0.0 0.0 0.00 0.00 0.00 43 1009.4
20260507051857 16 127 0.0 3.2 0.00 0.00 0.00 43 1009.1
20260507051355 16 154 8.0 9.7 0.00 0.00 0.00 44 1009.2
20260507050851 16 111 0.0 1.6 0.00 0.00 0.00 42 1009.3
20260507050348 16 137 4.8 8.0 0.00 0.00 0.00 43 1009.2
20260507045845 16 141 0.0 0.0 0.00 0.00 0.00 43 1009.4
20260507045342 16 131 8.0 9.7 0.00 0.00 0.00 43 1009.2
20260507044839 16 121 4.8 4.8 0.00 0.00 0.00 43 1009.5
20260507044335 17 207 0.0 0.0 0.00 0.00 0.00 42 1009.4
20260507043831 17 206 0.0 0.0 0.00 0.00 0.00 41 1009.4
20260507043328 17 193 3.2 3.2 0.00 0.00 0.00 41 1009.4
20260507042824 17 203 1.6 3.2 0.00 0.00 0.00 40 1009.2
20260507042320 17 262 3.2 3.2 0.00 0.00 0.00 38 1009.3
20260507041817 17 116 3.2 4.8 0.00 0.00 0.00 43 1009.3
20260507041313 17 191 3.2 3.2 0.00 0.00 0.00 41 1009.3
20260507040811 17 188 3.2 4.8 0.00 0.00 0.00 41 1009.1
20260507040307 17 218 0.0 0.0 0.00 0.00 0.00 40 1009.0
20260507035803 17 158 8.0 9.7 0.00 0.00 0.00 40 1008.8
20260507035258 16 252 0.0 0.0 0.00 0.00 0.00 46 1009.2
20260507034756 16 244 0.0 0.0 0.00 0.00 0.00 46 1009.2
20260507034253 16 233 0.0 0.0 0.00 0.00 0.00 48 1008.9
20260507033751 16 249 0.0 0.0 0.00 0.00 0.00 45 1008.9